[[{"header":{"parameterUnit":"m.s-1","parameterCategory":1,"la1":30.2991,"la2":30.254,"lo1":-89.0895,"lo2":-89.0444,"dy":0.0017,"dx":0.0017,"nx":28,"ny":28,"refTime":"2025-03-15T03:00:00:Z","depth":0,"parameterNumber":2,"parameterNumberName":"U-component_of_WINDS"},"data":[0,0,0,0,0,0,0,0,0,0,0,0,0,0,0,0,0,0,0,0,0,0,0,0,0,0,0,0,0,0,0,0,0,0,0,0,0,0,0,0,0,0,0,0,0,0,0,0,0,0,0,0,0,0,0,0,0,0,-5.1288,-5.129,0,-5.1459,-5.1461,-5.1463,-5.1517,-5.1516,-5.1515,-5.1514,-5.1688,-5.1693,-5.1698,0,0,0,0,0,0,0,0,0,0,0,0,0,-5.1006,-5.1011,-5.1288,-5.129,-5.1292,-5.1459,-5.1461,-5.1464,-5.1517,-5.1516,-5.1515,-5.1514,-5.1686,-5.1692,-5.1699,0,0,0,0,0,0,0,0,0,0,0,0,0,-5.1148,-5.1013,-5.1288,-5.1339,-5.1345,-5.1459,-5.1461,-5.1464,-5.1517,-5.1516,-5.1514,-5.1513,-5.1684,-5.1692,-5.17,-5.1774,0,0,-5.1724,-5.1728,0,0,0,0,0,0,0,0,-5.114,-5.1158,-5.1329,-5.1336,-5.1343,-5.1465,-5.1426,-5.1568,-5.1517,-5.1452,-5.1514,-5.1513,-5.1615,-5.1628,-5.1663,-5.1782,-5.1789,-5.1725,-5.173,-5.1733,-5.1736,0,0,0,0,0,0,0,-5.113,-5.1151,-5.1356,-5.1332,-5.134,-5.1353,-5.1372,-5.1453,-5.1538,-5.1457,-5.1462,-5.1481,-5.1618,-5.1655,-5.1668,-5.1792,-5.1725,-5.1732,-5.1737,-5.174,-5.1981,-5.1982,0,0,0,0,0,0,-5.1112,-5.1143,-5.135,-5.1361,-5.1236,-5.1359,-5.138,-5.1427,-5.1537,-5.1553,-5.1482,-5.1483,-5.1642,-5.1658,-5.1674,-5.1768,-5.1733,-5.1741,-5.1746,-5.1979,-5.1981,-5.1983,0,0,0,0,0,0,-5.1105,-5.113,-5.1343,-5.1253,-5.1281,-5.1365,-5.1418,-5.1431,-5.1468,-5.1556,-5.1571,-5.1504,-5.1642,-5.1662,-5.1749,-5.1774,-5.1745,-5.1752,-5.1977,-5.198,-5.1982,-5.1955,0,0,0,0,0,0,-5.1097,-5.1127,-5.1156,-5.1253,-5.1286,-5.1416,-5.1419,-5.1436,-5.1482,-5.1485,-5.1581,-5.1595,-5.1642,-5.1736,-5.1757,-5.1785,-5.1758,-5.1975,-5.1978,-5.1981,-5.1954,-5.1956,-5.1958,0,0,0,0,0,-5.1087,-5.1142,-5.1157,-5.1182,-5.1324,-5.1417,-5.1435,-5.1489,-5.1484,-5.1514,-5.157,-5.1592,-5.1769,-5.1745,-5.1768,-5.1799,-5.1974,-5.1977,-5.1981,-5.1953,-5.1956,-5.1958,0,0,0,0,0,0,-5.1044,-5.1155,-5.1174,-5.1262,-5.133,-5.1426,-5.1465,-5.149,-5.156,-5.156,-5.1622,-5.1644,-5.1725,-5.1771,-5.1743,-5.1877,-5.1872,-5.188,-5.1843,-5.1847,-5.1849,-5.1835,-5.1765,0,0,0,0,0,-5.1045,-5.1112,-5.1205,-5.1274,-5.1307,-5.138,-5.1422,-5.1458,-5.153,-5.1559,-5.1622,-5.1691,-5.1762,-5.1807,-5.1877,-5.1962,-5.1983,-5.1995,-5.1997,-5.1998,-5.2004,-5.2052,-5.2058,-5.1994,-5.1994,-5.1994,0,0,-5.1048,-5.1117,-5.1155,-5.1267,-5.1324,-5.139,-5.1404,-5.1474,-5.1524,-5.1569,-5.1654,-5.1703,-5.1785,-5.187,-5.1911,-5.1911,-5.2027,-5.2003,-5.2003,-5.2008,-5.2056,-5.2062,-5.2067,-5.1996,-5.1996,-5.1996,0,0,-5.1086,-5.1145,-5.1209,-5.1266,-5.1352,-5.14,-5.1415,-5.1508,-5.1542,-5.1629,-5.1665,-5.1725,-5.1846,-5.1903,-5.1947,-5.2009,-5.2031,-5.203,-5.204,-5.2086,-5.2091,-5.2095,-5.2116,-5.2123,-5.2036,-5.2036,-5.2036,0,-5.1078,-5.1181,-5.1238,-5.1307,-5.1355,-5.14,-5.1465,-5.1517,-5.1621,-5.1653,-5.1652,-5.1805,-5.1864,-5.1963,-5.1978,-5.2013,-5.2032,-5.2018,-5.2085,-5.2091,-5.2096,-5.2116,-5.2124,-5.2035,-5.2035,-5.2035,-5.2035,0,-5.1166,-5.1237,-5.1278,-5.1378,-5.1431,-5.1497,-5.1564,-5.1611,-5.1642,-5.169,-5.1778,-5.185,-5.1935,-5.1962,-5.1993,-5.2066,-5.2063,-5.2073,-5.2069,-5.21,-5.212,-5.2129,-5.2034,-5.2034,-5.2034,-5.2034,0,0,-5.118,-5.1312,-5.1326,-5.1372,-5.1471,-5.1527,-5.1595,-5.1679,-5.1718,-5.1789,-5.1847,-5.1949,-5.1959,-5.201,-5.2048,-5.2088,-5.2131,-5.2094,-5.2096,-5.2097,-5.2215,-5.2206,-5.2214,-5.2148,-5.215,-5.2151,-5.2208,0,-5.123,-5.1354,-5.1408,-5.1508,-5.1574,-5.1618,-5.1678,-5.1745,-5.1792,-5.1855,-5.1908,-5.1979,-5.1987,-5.2018,-5.206,-5.2117,-5.2155,-5.2114,-5.2202,-5.2204,-5.2178,-5.2225,-5.2215,-5.2265,-5.2216,-5.2218,-5.2219,0,-5.1305,-5.1376,-5.1482,-5.1573,-5.1603,-5.1655,-5.1737,-5.1797,-5.1874,-5.1905,-5.1962,-5.1999,-5.2072,-5.2065,-5.2167,-5.2137,-5.2177,-5.221,-5.2213,-5.2222,-5.2212,-5.2233,-5.2283,-5.229,-5.2232,-5.2231,-5.223,0,-5.1303,-5.1426,-5.1505,-5.1543,-5.1652,-5.1688,-5.1735,-5.1811,-5.1858,-5.1929,-5.1961,-5.204,-5.2082,-5.2143,-5.22,-5.2189,-5.2295,-5.2293,-5.2323,-5.2322,-5.2342,-5.2339,-5.2397,-5.237,-5.237,-5.237,-5.2369,0,-5.1352,-5.1414,-5.1506,-5.1554,-5.1626,-5.1688,-5.1757,-5.1807,-5.1875,-5.1933,-5.1978,-5.2032,-5.2104,-5.2168,-5.2213,-5.2289,-5.2309,-5.2336,-5.2347,-5.2331,-5.2328,-5.2357,-5.2354,-5.2372,-5.2371,-5.2371,-5.237,0,-5.1361,-5.1425,-5.1514,-5.161,-5.1636,-5.1684,-5.1766,-5.1815,-5.1865,-5.1939,-5.196,-5.2039,-5.2116,-5.2179,-5.228,-5.231,-5.239,-5.2404,-5.2364,-5.2369,-5.2395,-5.2391,-5.2472,-5.2485,-5.245,-5.2451,-5.2451,0,-5.1388,-5.1437,-5.1538,-5.1581,-5.1628,-5.1696,-5.1745,-5.1808,-5.1857,-5.1949,-5.1986,-5.2067,-5.2134,-5.2255,-5.2321,-5.2399,-5.2413,-5.2436,-5.2425,-5.2408,-5.2412,-5.2408,-5.2413,-5.2436,-5.2436,-5.2437,-5.2437,0,-5.1427,-5.1456,-5.1525,-5.1605,-5.1662,-5.1728,-5.1795,-5.1827,-5.1903,-5.1956,-5.2035,-5.2087,-5.2191,-5.227,-5.2354,-5.2403,-5.2432,-5.244,-5.2451,-5.2434,-5.2409,-5.2422,-5.2365,-5.2437,-5.2437,-5.2437,-5.2437,-5.2437,-5.1445,-5.1491,-5.157,-5.1645,-5.1702,-5.1764,-5.1814,-5.1871,-5.1939,-5.2028,-5.2061,-5.2143,-5.2219,-5.2336,-5.2384,-5.2449,-5.2452,-5.2468,-5.2472,-5.2474,-5.2471,-5.24,-5.2465,-5.2465,-5.2465,-5.2465,-5.2465,0,-5.1486,-5.1539,-5.1608,-5.17,-5.1759,-5.1783,-5.1858,-5.1906,-5.1977,-5.2046,-5.2112,-5.2203,-5.228,-5.2353,-5.2433,-5.2471,-5.2486,-5.249,-5.2487,-5.2497,-5.2465,-5.2447,-5.2476,-5.2476,-5.2476,-5.2476,-5.2476,-5.2476,-5.1514,-5.1593,-5.1631,-5.1739,-5.1792,-5.1872,-5.1913,-5.197,-5.2025,-5.2125,-5.219,-5.2237,-5.2307,-5.2394,-5.2465,-5.2485,-5.2512,-5.2511,-5.2534,-5.2502,-5.25,-5.2498,-5.2481,-5.2517,-5.2517,-5.2561,-5.2562,-5.2562]},{"header":{"parameterUnit":"m.s-1","parameterCategory":1,"la1":30.2991,"la2":30.254,"lo1":-89.0895,"lo2":-89.0444,"dy":0.0017,"dx":0.0017,"nx":28,"ny":28,"refTime":"2025-03-15T03:00:00:Z","depth":0,"parameterNumber":3,"parameterNumberName":"V-component_of_WINDS"},"data":[0,0,0,0,0,0,0,0,0,0,0,0,0,0,0,0,0,0,0,0,0,0,0,0,0,0,0,0,0,0,0,0,0,0,0,0,0,0,0,0,0,0,0,0,0,0,0,0,0,0,0,0,0,0,0,0,0,0,8.4713,8.4713,0,8.4745,8.4746,8.4746,8.4669,8.4667,8.4664,8.4662,8.4693,8.4695,8.4699,0,0,0,0,0,0,0,0,0,0,0,0,0,8.4583,8.4586,8.4713,8.4713,8.4713,8.4745,8.4746,8.4746,8.467,8.4667,8.4664,8.4661,8.4691,8.4695,8.4699,0,0,0,0,0,0,0,0,0,0,0,0,0,8.463,8.4586,8.4712,8.4679,8.4676,8.4745,8.4746,8.4746,8.467,8.4667,8.4663,8.466,8.469,8.4695,8.4699,8.4801,0,0,8.4713,8.4715,0,0,0,0,0,0,0,0,8.4627,8.4634,8.4684,8.4682,8.4679,8.47,8.4711,8.4764,8.4671,8.4673,8.4662,8.4658,8.4698,8.4701,8.4715,8.4802,8.4804,8.4714,8.4717,8.4719,8.472,0,0,0,0,0,0,0,8.4624,8.4633,8.4725,8.4684,8.4681,8.4662,8.4665,8.4721,8.4705,8.4672,8.4667,8.4672,8.4695,8.4711,8.4716,8.4804,8.4714,8.4718,8.4721,8.4722,8.498,8.4984,0,0,0,0,0,0,8.4625,8.463,8.4724,8.4726,8.4644,8.4668,8.467,8.4696,8.4704,8.4702,8.4675,8.4668,8.4705,8.471,8.4716,8.4839,8.4719,8.4723,8.4726,8.4976,8.4981,8.4985,0,0,0,0,0,0,8.4623,8.4634,8.4723,8.4677,8.4687,8.4674,8.4704,8.4699,8.4715,8.4706,8.4703,8.4694,8.4702,8.471,8.4782,8.4838,8.4725,8.4729,8.4971,8.4977,8.4983,8.5082,0,0,0,0,0,0,8.4619,8.4634,8.4672,8.4679,8.469,8.4788,8.4707,8.4702,8.4723,8.4715,8.4723,8.4721,8.47,8.4775,8.4786,8.4843,8.4733,8.4966,8.4974,8.4981,8.5074,8.5091,8.5106,0,0,0,0,0,8.4615,8.4697,8.4675,8.4686,8.4738,8.4792,8.4798,8.4773,8.4728,8.4767,8.4762,8.4721,8.483,8.4783,8.4795,8.4854,8.4962,8.4971,8.498,8.5067,8.5088,8.5105,0,0,0,0,0,0,8.4696,8.4697,8.4672,8.4759,8.4776,8.4779,8.4826,8.4795,8.4824,8.4815,8.4782,8.4784,8.4863,8.4865,8.4812,8.4954,8.4889,8.4901,8.495,8.497,8.4986,8.4984,8.4737,0,0,0,0,0,8.4724,8.4769,8.4767,8.4844,8.4854,8.484,8.4862,8.4842,8.4857,8.4864,8.4864,8.488,8.4918,8.4944,8.4978,8.5074,8.5076,8.512,8.5136,8.5149,8.516,8.5214,8.5235,8.5015,8.5015,8.5015,0,0,8.4783,8.4789,8.4819,8.4861,8.4872,8.4919,8.4846,8.4897,8.4933,8.4871,8.494,8.4941,8.4957,8.5042,8.5079,8.5046,8.5222,8.5161,8.5171,8.5175,8.5226,8.5247,8.5265,8.5021,8.502,8.5019,0,0,8.4914,8.4922,8.4989,8.5002,8.5021,8.5011,8.5027,8.5035,8.5034,8.5103,8.5059,8.5099,8.5165,8.518,8.5195,8.5336,8.5301,8.5348,8.5432,8.5485,8.5502,8.5517,8.557,8.5589,8.5359,8.5359,8.5359,0,8.4984,8.5054,8.5027,8.5084,8.5105,8.5053,8.5122,8.5135,8.5163,8.5179,8.5141,8.5226,8.5232,8.5322,8.5357,8.537,8.5389,8.5347,8.5502,8.5517,8.5531,8.5581,8.5601,8.5365,8.5365,8.5364,8.5363,0,8.5141,8.519,8.5242,8.5273,8.53,8.5362,8.5345,8.5375,8.5353,8.5347,8.542,8.5426,8.5463,8.5482,8.546,8.557,8.5549,8.5508,8.5441,8.5558,8.5605,8.5624,8.5374,8.5372,8.537,8.5368,0,0,8.5322,8.5341,8.5361,8.5376,8.5394,8.5431,8.5492,8.553,8.5557,8.5579,8.563,8.5688,8.5651,8.5669,8.5649,8.5695,8.581,8.5648,8.5648,8.568,8.5935,8.5968,8.599,8.5786,8.5789,8.5792,8.5934,0,8.5454,8.556,8.554,8.5643,8.569,8.5643,8.5696,8.5713,8.571,8.5749,8.5745,8.5789,8.5734,8.5746,8.579,8.5787,8.5861,8.5776,8.5834,8.5837,8.5834,8.6014,8.6048,8.6182,8.5952,8.5955,8.5957,0,8.5622,8.5654,8.5763,8.5777,8.5796,8.5844,8.5879,8.5916,8.5935,8.593,8.5953,8.5924,8.5985,8.5917,8.6002,8.5945,8.5967,8.597,8.5974,8.598,8.5905,8.6027,8.6223,8.6244,8.5985,8.5983,8.5981,0,8.5748,8.5817,8.5892,8.5906,8.5923,8.5959,8.5968,8.5983,8.6008,8.6038,8.6055,8.6091,8.6111,8.614,8.6122,8.6074,8.6211,8.6141,8.6209,8.621,8.6241,8.624,8.6446,8.6252,8.6252,8.6252,8.6251,0,8.5899,8.5968,8.5949,8.5996,8.6073,8.6048,8.6125,8.6128,8.6143,8.6189,8.615,8.6194,8.6167,8.621,8.6196,8.627,8.6278,8.6276,8.6272,8.6281,8.6282,8.6297,8.6288,8.6257,8.6256,8.6255,8.6254,0,8.6052,8.6042,8.6122,8.6133,8.6138,8.6194,8.6203,8.6247,8.6242,8.6302,8.6314,8.6306,8.6354,8.6339,8.639,8.6381,8.6476,8.6459,8.6471,8.6467,8.6538,8.6532,8.6762,8.6793,8.6577,8.6579,8.6581,0,8.615,8.6203,8.6221,8.6251,8.6263,8.631,8.6337,8.6315,8.6345,8.6372,8.6413,8.6459,8.6494,8.6573,8.6572,8.6611,8.6596,8.6674,8.6602,8.661,8.6601,8.6599,8.6605,8.6689,8.6692,8.6694,8.6695,0,8.6326,8.632,8.636,8.6401,8.6435,8.6465,8.6491,8.6517,8.6497,8.6532,8.6582,8.661,8.6664,8.6711,8.6747,8.6755,8.6724,8.6718,8.6737,8.6747,8.6753,8.6754,8.6513,8.6713,8.6711,8.671,8.6709,8.6708,8.6457,8.6503,8.6525,8.6572,8.659,8.6617,8.666,8.6661,8.6703,8.6747,8.6731,8.679,8.6809,8.6856,8.687,8.6915,8.6885,8.6911,8.6918,8.6925,8.6936,8.6745,8.6921,8.6921,8.692,8.692,8.6919,0,8.6634,8.6646,8.669,8.673,8.6768,8.6735,8.6763,8.6797,8.685,8.6872,8.6908,8.6968,8.7013,8.7016,8.7059,8.7095,8.7081,8.7107,8.7105,8.7108,8.6959,8.694,8.7118,8.7118,8.7118,8.7118,8.7118,8.7117,8.673,8.6808,8.6805,8.6892,8.6903,8.6961,8.6981,8.7005,8.7023,8.7092,8.7131,8.7133,8.7148,8.7192,8.7233,8.7232,8.7251,8.7283,8.7278,8.7138,8.7118,8.71,8.7082,8.7287,8.7287,8.7424,8.7425,8.7426]}]]